User: anonymous   Login
Location: Unspecified
(0.0000°N, 0.0000°E)
Time: 01:13:44
(UTC+00:00)
Language:

Hamsat - Orbit

View from above orbital plane
View from above orbital plane
View from above satellite
View from above satellite

Ground track
Ground track

The orbit data is extracted from the following two-line orbital elements,

1 28650U 05017B   20297.43046061 +.00000432 +00000-0 +51102-4 0  9990
2 28650 097.8175 258.5319 0024397 046.3473 313.9762 14.89408628838285
Epoch (UTC): 23 October 2020 10:19:51
Eccentricity: 0.0024397
inclination: 97.8175°
perigee height: 583 km
apogee height: 617 km
right ascension of ascending node: 258.5319°
argument of perigee: 46.3473°
revolutions per day: 14.89408628
mean anomaly at epoch: 313.9762°
orbit number at epoch: 83828

The dashed part of the orbit path shows where the satellite is in the earth's shadow,  

DLR